#timestamp,LO_Frequency,Hit,StdDev 
1645369215.5,286046998.6,N
1645369235.3,286047000.1,N
1645369255.2,286046998.0,N
1645369275.0,286046995.4,N
1645369275.9,286046995.4,N
1645369295.8,286046993.4,N
1645369315.6,286046996.1,N
1645369335.4,286046997.5,N
1645369355.3,286046995.5,N
1645369375.1,286046991.8,Y
1645369395.8,286046995.7,P
1645369415.7,286046993.4,P
1645369435.5,286046996.3,N
1645369455.4,286046995.4,N
1645369475.2,286046997.5,N
1645369495.0,286046995.3,N
1645369495.9,286046995.3,N
1645369515.8,286047011.9,Y
1645369535.6,286046998.3,P
1645369555.5,286047002.4,N
1645369575.3,286047001.1,N
1645369595.1,286047002.6,N
1645369615.9,286047003.5,N
1645369635.7,286046999.2,N
1645369655.5,286047001.2,N
1645369675.4,286047000.6,N
1645369695.2,286047004.1,N
1645369715.0,286047005.2,N
1645369716.0,286047005.2,N
1645369735.8,286047003.4,N
1645369755.6,286047003.4,N
1645369775.5,286047004.8,N
1645369795.3,286047007.0,N
1645369815.1,286047007.0,N
1645369835.9,286047004.4,N
1645369855.7,286047005.2,N
1645369875.6,286047005.2,N
1645369895.4,286047001.4,N
1645369915.2,286047004.8,N
1645369935.1,286047006.7,N
1645369936.0,286047006.7,N
1645369955.8,286047003.5,N
1645369975.6,286047003.8,N
1645369995.5,286047001.4,N
1645370015.3,286047004.1,N
1645370035.2,286047002.0,N
1645370055.9,286047000.4,N
1645370075.7,286047001.9,N
1645370095.6,286047000.3,N
1645370115.4,286047001.6,N
1645370135.2,286047001.3,N
1645370155.1,286047001.6,N
1645370156.0,286047001.6,N
1645370175.8,286047002.4,N
1645370195.7,286047002.2,N
1645370215.5,286047004.4,N
1645370235.3,286047001.5,N
1645370255.2,286047000.5,N
1645370275.9,286047004.4,N
1645370295.7,286047003.4,N
1645370315.6,286047005.2,N
1645370335.4,286047003.4,N
1645370355.3,286047005.1,N
1645370375.1,286047005.3,N
1645370376.0,286047005.3,N
1645370395.8,286047007.6,Y
1645370415.7,286047002.4,P
1645370435.5,286046998.9,N
1645370455.3,286046997.4,N
1645370475.2,286046997.0,N
1645370495.0,286047000.0,N
1645370495.9,286047000.0,N
1645370515.8,286047002.1,N
1645370535.6,286047000.1,N
1645370555.4,286047002.0,N
1645370575.3,286047001.5,N
1645370595.1,286047002.7,N
1645370615.8,286047004.1,N
1645370635.7,286047001.5,N
1645370655.5,286047001.9,N
1645370675.4,286047003.6,N
1645370695.2,286047004.4,N
1645370715.0,286047003.9,N
1645370715.9,286047003.9,N
1645370735.8,286046999.7,N
1645370755.6,286047002.3,N
1645370805.5,286046999.6,E
1645370815.4,286046998.2,N
1645370835.2,286046999.9,P
1645370855.1,286046997.2,P
1645370856.0,286046997.2,N
1645370875.8,286046997.9,N
1645370895.6,286046997.7,N
1645370915.5,286046996.4,Y
1645370935.3,286046999.4,P
1645370955.2,286046997.3,P
1645370975.9,286046999.1,N
1645370995.7,286046998.0,N
1645371015.6,286046995.0,Y
1645371035.4,286047002.8,P
1645371055.2,286047003.5,N
1645371075.1,286047002.3,N
1645371076.0,286047002.3,N
1645371095.8,286047000.6,N
1645371115.7,286047001.1,N
1645371135.5,286046999.0,N
1645371155.3,286046998.9,N
1645371175.2,286046999.1,N
1645371195.0,286046998.5,N
1645371195.9,286046998.5,N
1645371215.7,286047002.4,N
1645371235.6,286047002.7,N
1645371255.4,286046999.2,N
1645371275.3,286047000.7,N
1645371295.1,286046999.4,N
1645371296.0,286046999.4,N
1645371315.8,286046995.0,N
1645371335.7,286046996.7,N
1645371355.5,286047002.3,N
1645371375.3,286047001.9,N
1645371395.2,286047003.9,N
1645371415.0,286047000.0,N
1645371415.9,286047000.0,N
1645371435.8,286047000.7,N
1645371455.6,286046998.6,N
1645371475.4,286046999.6,N
1645371495.3,286046998.1,N
1645371515.1,286047000.6,N
1645371535.9,286046998.2,N
1645371555.7,286046996.5,N
1645371575.5,286046998.4,N
1645371595.4,286047001.0,N
1645371615.2,286047001.1,N
1645371635.0,286047001.9,N
1645371635.9,286047001.9,N
1645371655.8,286047004.4,N
1645371675.6,286047001.3,N
1645371695.5,286047002.3,N
1645371715.3,286047000.3,N
1645371735.1,286046998.9,N
1645371755.9,286047002.7,N
1645371775.7,286047001.9,N
1645371795.5,286047004.2,N
1645371815.4,286047002.9,N
1645371835.2,286047003.0,N
1645371855.1,286047007.0,Y
1645371856.0,286047007.0,P
1645371875.8,286047008.4,N
1645371895.6,286047009.1,N
1645371915.5,286047006.2,N
1645371935.3,286047011.9,Y
1645371955.2,286047003.4,P
1645371975.9,286047000.0,N
1645371995.7,286046998.6,N
1645372015.6,286046997.4,N
1645372035.4,286046999.0,N
1645372055.2,286047000.3,N
1645372075.1,286047000.5,N
1645372076.0,286047000.5,N
1645372095.8,286047003.1,N
1645372115.7,286047002.9,N
1645372135.5,286047000.2,N
1645372155.3,286047001.4,N
1645372175.2,286047003.2,N
1645372195.0,286047004.4,N
1645372195.9,286047004.4,N
1645372215.8,286047007.4,Y
1645372235.6,286047000.3,P
1645372255.4,286046999.4,N
1645372275.3,286046998.1,N
1645372295.1,286046998.1,N
1645372315.8,286047000.5,N
1645372335.7,286046999.6,N
1645372355.5,286047000.9,N
1645372375.4,286047002.6,N
1645372395.2,286047000.0,N
1645372415.0,286046999.4,N
1645372415.9,286046999.4,N
1645372435.8,286046995.3,Y
1645372455.6,286046995.8,P
1645372475.4,286046998.0,N
1645372495.3,286046995.8,N
1645372515.1,286046997.0,N
1645372535.9,286046996.7,N
1645372555.7,286046997.8,N
1645372575.5,286046999.2,N
1645372595.4,286046999.8,N
1645372615.2,286047001.1,N
1645372635.0,286046997.2,N
1645372635.9,286046997.2,N
1645372655.8,286047002.6,N
1645372675.6,286046998.1,N
1645372695.5,286047000.5,N
1645372715.3,286047001.1,N
1645372735.1,286047000.0,N
1645372755.9,286046997.8,N
1645372775.7,286046996.2,N
1645372795.5,286046996.6,N
